Time,TemperatureF,DewpointF,PressureIn,WindDirection,WindDirectionDegrees,WindSpeedMPH,WindSpeedGustMPH,Humidity,HourlyPrecipIn,Conditions,Clouds,dailyrainin,SoftwareType,DateUTC
2013-04-28 00:07:00,56.8,51.0,30.05,ESE,111,4.0,7.0,81,0.00,,,0.00,weatherlink.com 1.10,2013-04-28 04:07:00,
2013-04-28 00:23:00,56.6,51.0,30.04,ESE,115,7.0,7.0,81,0.00,,,0.00,weatherlink.com 1.10,2013-04-28 04:23:00,
2013-04-28 00:38:00,56.4,51.0,30.03,ESE,105,2.0,7.0,81,0.00,,,0.00,weatherlink.com 1.10,2013-04-28 04:38:00,
2013-04-28 00:54:00,56.3,51.0,30.02,ESE,102,2.0,7.0,81,0.00,,,0.00,weatherlink.com 1.10,2013-04-28 04:54:00,
2013-04-28 01:09:00,56.2,51.0,30.02,East,98,5.0,7.0,82,0.00,,,0.00,weatherlink.com 1.10,2013-04-28 05:09:00,
2013-04-28 01:24:00,56.2,51.0,30.01,ESE,113,3.0,9.0,83,0.00,,,0.00,weatherlink.com 1.10,2013-04-28 05:24:00,
2013-04-28 01:39:00,56.0,51.0,30.00,ESE,106,4.0,7.0,84,0.00,,,0.00,weatherlink.com 1.10,2013-04-28 05:39:00,
2013-04-28 01:56:00,55.9,51.0,29.99,ESE,108,3.0,7.0,84,0.00,,,0.00,weatherlink.com 1.10,2013-04-28 05:56:00,
2013-04-28 02:11:00,55.8,51.0,29.98,East,101,5.0,6.0,85,0.00,,,0.00,weatherlink.com 1.10,2013-04-28 06:11:00,
2013-04-28 02:26:00,55.7,52.0,29.98,SE,131,3.0,7.0,86,0.00,,,0.00,weatherlink.com 1.10,2013-04-28 06:26:00,
2013-04-28 02:41:00,55.6,52.0,29.97,East,98,3.0,7.0,87,0.00,,,0.00,weatherlink.com 1.10,2013-04-28 06:41:00,
2013-04-28 02:56:00,55.5,52.0,29.96,East,92,6.0,8.0,87,0.00,,,0.00,weatherlink.com 1.10,2013-04-28 06:56:00,
2013-04-28 03:11:00,55.3,52.0,29.95,East,92,3.0,8.0,88,0.00,,,0.00,weatherlink.com 1.10,2013-04-28 07:11:00,
2013-04-28 03:26:00,54.9,52.0,29.95,East,90,3.0,7.0,89,0.00,,,0.00,weatherlink.com 1.10,2013-04-28 07:26:00,
2013-04-28 03:42:00,54.5,52.0,29.94,East,92,6.0,7.0,90,0.00,,,0.00,weatherlink.com 1.10,2013-04-28 07:42:00,
2013-04-28 03:57:00,54.5,52.0,29.93,East,90,5.0,7.0,91,0.00,,,0.00,weatherlink.com 1.10,2013-04-28 07:57:00,
2013-04-28 04:12:00,54.5,52.0,29.93,East,85,2.0,7.0,91,0.00,,,0.00,weatherlink.com 1.10,2013-04-28 08:12:00,
2013-04-28 04:27:00,54.2,52.0,29.92,ESE,102,5.0,8.0,92,0.00,,,0.00,weatherlink.com 1.10,2013-04-28 08:27:00,
2013-04-28 04:43:00,54.0,52.0,29.92,East,101,3.0,9.0,92,0.01,,,0.01,weatherlink.com 1.10,2013-04-28 08:43:00,
2013-04-28 04:58:00,53.7,52.0,29.92,East,88,6.0,7.0,93,0.02,,,0.02,weatherlink.com 1.10,2013-04-28 08:58:00,
2013-04-28 05:13:00,53.6,52.0,29.91,East,84,3.0,7.0,93,0.06,,,0.06,weatherlink.com 1.10,2013-04-28 09:13:00,
2013-04-28 05:29:00,53.4,52.0,29.91,East,87,2.0,7.0,94,0.13,,,0.13,weatherlink.com 1.10,2013-04-28 09:29:00,
2013-04-28 05:44:00,53.2,52.0,29.91,East,88,6.0,7.0,95,0.18,,,0.19,weatherlink.com 1.10,2013-04-28 09:44:00,
2013-04-28 05:59:00,53.0,52.0,29.90,East,85,3.0,8.0,95,0.21,,,0.24,weatherlink.com 1.10,2013-04-28 09:59:00,
2013-04-28 06:14:00,53.0,52.0,29.90,East,88,5.0,7.0,95,0.19,,,0.25,weatherlink.com 1.10,2013-04-28 10:14:00,
2013-04-28 06:31:00,52.9,52.0,29.90,East,90,5.0,7.0,96,0.15,,,0.29,weatherlink.com 1.10,2013-04-28 10:31:00,
2013-04-28 06:46:00,53.0,52.0,29.90,East,97,3.0,8.0,96,0.14,,,0.34,weatherlink.com 1.10,2013-04-28 10:46:00,
2013-04-28 07:01:00,53.0,52.0,29.90,ESE,105,3.0,8.0,96,0.16,,,0.40,weatherlink.com 1.10,2013-04-28 11:01:00,
2013-04-28 07:16:00,53.0,52.0,29.89,ENE,78,2.0,7.0,96,0.18,,,0.43,weatherlink.com 1.10,2013-04-28 11:16:00,
2013-04-28 07:31:00,53.1,52.0,29.90,East,94,2.0,5.0,97,0.17,,,0.46,weatherlink.com 1.10,2013-04-28 11:31:00,
2013-04-28 07:46:00,53.1,52.0,29.89,East,82,5.0,5.0,97,0.14,,,0.48,weatherlink.com 1.10,2013-04-28 11:46:00,
2013-04-28 08:01:00,53.3,53.0,29.89,East,86,2.0,5.0,97,0.10,,,0.50,weatherlink.com 1.10,2013-04-28 12:01:00,
2013-04-28 08:16:00,53.5,53.0,29.89,East,90,2.0,5.0,97,0.09,,,0.52,weatherlink.com 1.10,2013-04-28 12:16:00,
2013-04-28 08:33:00,53.7,53.0,29.89,East,90,2.0,5.0,97,0.07,,,0.53,weatherlink.com 1.10,2013-04-28 12:33:00,
2013-04-28 08:47:00,54.2,54.0,29.88,ESE,102,3.0,7.0,98,0.05,,,0.53,weatherlink.com 1.10,2013-04-28 12:47:00,
2013-04-28 09:02:00,54.4,54.0,29.88,ESE,115,2.0,7.0,97,0.02,,,0.53,weatherlink.com 1.10,2013-04-28 13:02:00,
2013-04-28 09:17:00,54.6,54.0,29.88,ESE,123,4.0,7.0,97,0.01,,,0.53,weatherlink.com 1.10,2013-04-28 13:17:00,
2013-04-28 09:33:00,54.9,54.0,29.88,ESE,111,2.0,9.0,98,0.00,,,0.53,weatherlink.com 1.10,2013-04-28 13:33:00,
2013-04-28 09:48:00,55.2,55.0,29.87,ESE,119,4.0,5.0,98,0.00,,,0.53,weatherlink.com 1.10,2013-04-28 13:48:00,
2013-04-28 10:03:00,55.5,55.0,29.87,ESE,123,4.0,6.0,98,0.00,,,0.53,weatherlink.com 1.10,2013-04-28 14:03:00,
2013-04-28 10:18:00,55.7,55.0,29.87,SSE,147,1.0,8.0,98,0.00,,,0.53,weatherlink.com 1.10,2013-04-28 14:18:00,
2013-04-28 10:34:00,56.0,56.0,29.86,SE,141,5.0,7.0,98,0.02,,,0.55,weatherlink.com 1.10,2013-04-28 14:34:00,
2013-04-28 10:51:00,56.3,56.0,29.86,SE,138,2.0,8.0,98,0.02,,,0.55,weatherlink.com 1.10,2013-04-28 14:51:00,
2013-04-28 11:04:00,56.6,56.0,29.86,SSE,154,3.0,8.0,98,0.02,,,0.55,weatherlink.com 1.10,2013-04-28 15:04:00,
2013-04-28 11:19:00,56.7,56.0,29.86,SSE,161,2.0,7.0,98,0.02,,,0.55,weatherlink.com 1.10,2013-04-28 15:19:00,
2013-04-28 11:36:00,56.8,56.0,29.86,South,182,5.0,9.0,98,0.00,,,0.55,weatherlink.com 1.10,2013-04-28 15:36:00,
2013-04-28 11:51:00,57.0,56.0,29.86,SSE,167,3.0,7.0,97,0.00,,,0.55,weatherlink.com 1.10,2013-04-28 15:51:00,
2013-04-28 12:06:00,57.1,56.0,29.86,South,174,1.0,7.0,97,0.00,,,0.55,weatherlink.com 1.10,2013-04-28 16:06:00,
2013-04-28 12:21:00,57.3,57.0,29.86,South,175,3.0,7.0,97,0.00,,,0.55,weatherlink.com 1.10,2013-04-28 16:21:00,
2013-04-28 12:36:00,57.7,57.0,29.85,South,190,6.0,12.0,96,0.00,,,0.55,weatherlink.com 1.10,2013-04-28 16:36:00,
2013-04-28 12:51:00,57.9,57.0,29.85,SSW,194,7.0,11.0,95,0.00,,,0.55,weatherlink.com 1.10,2013-04-28 16:51:00,
2013-04-28 13:06:00,58.3,57.0,29.84,SSW,209,7.0,8.0,95,0.00,,,0.55,weatherlink.com 1.10,2013-04-28 17:06:00,
2013-04-28 13:22:00,58.4,57.0,29.84,SSW,192,6.0,8.0,95,0.00,,,0.55,weatherlink.com 1.10,2013-04-28 17:22:00,
2013-04-28 13:37:00,58.7,57.0,29.84,SW,215,2.0,11.0,94,0.00,,,0.55,weatherlink.com 1.10,2013-04-28 17:37:00,
2013-04-28 13:52:00,59.1,57.0,29.84,South,180,2.0,7.0,93,0.00,,,0.55,weatherlink.com 1.10,2013-04-28 17:52:00,
2013-04-28 14:07:00,58.9,57.0,29.83,South,181,4.0,8.0,93,0.00,,,0.55,weatherlink.com 1.10,2013-04-28 18:07:00,
2013-04-28 14:23:00,59.1,57.0,29.83,SSW,209,4.0,10.0,93,0.00,,,0.55,weatherlink.com 1.10,2013-04-28 18:23:00,
2013-04-28 14:38:00,59.4,57.0,29.83,SSW,207,6.0,7.0,93,0.00,,,0.55,weatherlink.com 1.10,2013-04-28 18:38:00,
2013-04-28 14:53:00,59.5,58.0,29.83,SSW,192,3.0,6.0,93,0.00,,,0.55,weatherlink.com 1.10,2013-04-28 18:53:00,
2013-04-28 15:08:00,59.5,58.0,29.83,WSW,248,3.0,6.0,93,0.00,,,0.55,weatherlink.com 1.10,2013-04-28 19:08:00,
2013-04-28 15:24:00,59.5,58.0,29.83,WSW,253,1.0,5.0,93,0.00,,,0.55,weatherlink.com 1.10,2013-04-28 19:24:00,
2013-04-28 15:39:00,59.3,57.0,29.83,SW,223,2.0,6.0,92,0.00,,,0.55,weatherlink.com 1.10,2013-04-28 19:39:00,
2013-04-28 15:54:00,59.2,57.0,29.82,WSW,254,3.0,6.0,93,0.00,,,0.55,weatherlink.com 1.10,2013-04-28 19:54:00,
2013-04-28 16:09:00,59.2,57.0,29.82,WSW,238,2.0,5.0,93,0.00,,,0.55,weatherlink.com 1.10,2013-04-28 20:09:00,
2013-04-28 16:26:00,59.3,57.0,29.82,West,259,1.0,5.0,93,0.00,,,0.55,weatherlink.com 1.10,2013-04-28 20:26:00,
2013-04-28 16:41:00,59.1,57.0,29.82,West,261,2.0,6.0,94,0.01,,,0.56,weatherlink.com 1.10,2013-04-28 20:41:00,
2013-04-28 16:56:00,58.9,58.0,29.82,West,261,2.0,4.0,95,0.01,,,0.56,weatherlink.com 1.10,2013-04-28 20:56:00,
2013-04-28 17:11:00,58.6,57.0,29.82,West,265,3.0,6.0,95,0.01,,,0.56,weatherlink.com 1.10,2013-04-28 21:11:00,
2013-04-28 17:26:00,58.4,57.0,29.82,West,276,3.0,7.0,96,0.01,,,0.56,weatherlink.com 1.10,2013-04-28 21:26:00,
2013-04-28 17:41:00,58.2,57.0,29.82,West,281,1.0,4.0,96,0.00,,,0.56,weatherlink.com 1.10,2013-04-28 21:41:00,
2013-04-28 17:56:00,58.1,57.0,29.82,WNW,282,2.0,6.0,96,0.00,,,0.56,weatherlink.com 1.10,2013-04-28 21:56:00,
2013-04-28 18:12:00,58.2,57.0,29.82,WNW,282,1.0,4.0,96,0.00,,,0.56,weatherlink.com 1.10,2013-04-28 22:12:00,
2013-04-28 18:27:00,58.5,57.0,29.83,WNW,282,1.0,4.0,96,0.00,,,0.56,weatherlink.com 1.10,2013-04-28 22:27:00,
2013-04-28 18:42:00,58.6,58.0,29.83,WNW,282,2.0,5.0,96,0.00,,,0.56,weatherlink.com 1.10,2013-04-28 22:42:00,
2013-04-28 18:57:00,58.7,58.0,29.83,WNW,282,1.0,5.0,96,0.00,,,0.56,weatherlink.com 1.10,2013-04-28 22:57:00,
2013-04-28 19:13:00,58.7,57.0,29.82,WNW,282,2.0,4.0,95,0.00,,,0.56,weatherlink.com 1.10,2013-04-28 23:13:00,
2013-04-28 19:28:00,58.9,57.0,29.82,WNW,282,1.0,4.0,94,0.00,,,0.56,weatherlink.com 1.10,2013-04-28 23:28:00,
2013-04-28 19:43:00,58.6,57.0,29.82,WNW,282,2.0,4.0,94,0.00,,,0.56,weatherlink.com 1.10,2013-04-28 23:43:00,
2013-04-28 19:59:00,58.4,57.0,29.83,WNW,282,1.0,4.0,95,0.00,,,0.56,weatherlink.com 1.10,2013-04-28 23:59:00,
2013-04-28 20:14:00,58.3,57.0,29.83,WNW,282,1.0,3.0,95,0.00,,,0.56,weatherlink.com 1.10,2013-04-29 00:14:00,
2013-04-28 20:29:00,58.2,57.0,29.84,WNW,282,0.0,0.0,95,0.00,,,0.56,weatherlink.com 1.10,2013-04-29 00:29:00,
2013-04-28 20:44:00,58.0,57.0,29.84,WNW,282,0.0,0.0,95,0.00,,,0.56,weatherlink.com 1.10,2013-04-29 00:44:00,
2013-04-28 21:01:00,58.0,57.0,29.84,WNW,282,1.0,2.0,96,0.00,,,0.56,weatherlink.com 1.10,2013-04-29 01:01:00,
2013-04-28 21:16:00,57.9,57.0,29.84,WNW,282,1.0,3.0,96,0.00,,,0.56,weatherlink.com 1.10,2013-04-29 01:16:00,
2013-04-28 21:31:00,57.8,57.0,29.85,WNW,282,0.0,2.0,96,0.00,,,0.56,weatherlink.com 1.10,2013-04-29 01:31:00,
2013-04-28 21:46:00,57.6,57.0,29.86,WNW,282,0.0,2.0,96,0.00,,,0.56,weatherlink.com 1.10,2013-04-29 01:46:00,
2013-04-28 22:01:00,57.7,57.0,29.85,WNW,282,0.0,2.0,96,0.00,,,0.56,weatherlink.com 1.10,2013-04-29 02:01:00,
2013-04-28 22:16:00,57.6,57.0,29.86,WNW,282,0.0,2.0,96,0.00,,,0.56,weatherlink.com 1.10,2013-04-29 02:16:00,
2013-04-28 22:32:00,57.6,57.0,29.86,WNW,282,1.0,3.0,97,0.00,,,0.56,weatherlink.com 1.10,2013-04-29 02:32:00,
2013-04-28 22:47:00,57.6,57.0,29.87,WNW,282,2.0,4.0,97,0.00,,,0.56,weatherlink.com 1.10,2013-04-29 02:47:00,
2013-04-28 23:02:00,57.5,57.0,29.87,WNW,282,2.0,5.0,97,0.00,,,0.56,weatherlink.com 1.10,2013-04-29 03:02:00,
2013-04-28 23:17:00,57.3,56.0,29.87,WNW,282,1.0,3.0,96,0.00,,,0.56,weatherlink.com 1.10,2013-04-29 03:17:00,
2013-04-28 23:33:00,57.1,56.0,29.87,West,275,0.0,7.0,96,0.00,,,0.56,weatherlink.com 1.10,2013-04-29 03:33:00,
2013-04-28 23:48:00,57.0,56.0,29.87,West,275,2.0,4.0,96,0.00,,,0.56,weatherlink.com 1.10,2013-04-29 03:48:00,